TimeIST,TemperatureF,Dew PointF,Humidity,Sea Level PressureIn,VisibilityMPH,Wind Direction,Wind SpeedMPH,Gust SpeedMPH,PrecipitationIn,Events,Conditions,WindDirDegrees,DateUTC
12:00 AM,55.4,53.6,94,30.06,-9999.0,Calm,Calm,-,N/A,,Mist,0,2013-03-02 18:30:00
12:30 AM,53.6,51.8,94,30.04,1.6,Calm,Calm,-,N/A,,Mist,0,2013-03-02 19:00:00
1:00 AM,53.6,51.8,94,30.04,1.6,Calm,Calm,-,N/A,,Mist,0,2013-03-02 19:30:00
1:30 AM,53.6,51.8,94,30.04,1.6,Calm,Calm,-,N/A,,Mist,0,2013-03-02 20:00:00
2:00 AM,53.6,51.8,94,30.04,1.6,Calm,Calm,-,N/A,,Mist,0,2013-03-02 20:30:00
2:30 AM,53.6,51.8,94,30.04,1.6,Calm,Calm,-,N/A,,Mist,0,2013-03-02 21:00:00
3:00 AM,53.6,51.8,94,30.01,1.6,Calm,Calm,-,N/A,,Mist,0,2013-03-02 21:30:00
3:30 AM,53.6,51.8,94,30.01,1.6,Calm,Calm,-,N/A,,Mist,0,2013-03-02 22:00:00
4:00 AM,53.6,51.8,94,30.01,1.6,Calm,Calm,-,N/A,,Mist,0,2013-03-02 22:30:00
5:00 AM,51.8,50.0,94,30.01,1.6,Calm,Calm,-,N/A,,Mist,0,2013-03-02 23:30:00
5:30 AM,50.0,48.2,94,30.01,1.6,Calm,Calm,-,N/A,,Mist,0,2013-03-03 00:00:00
6:00 AM,50.0,48.2,94,30.01,1.2,Calm,Calm,-,N/A,,Mist,0,2013-03-03 00:30:00
6:30 AM,50.0,48.2,94,30.01,0.6,Calm,Calm,-,N/A,,Mist,0,2013-03-03 01:00:00
7:00 AM,48.2,48.2,100,30.01,0.1,Calm,Calm,-,N/A,Fog,Fog,0,2013-03-03 01:30:00
7:30 AM,48.2,48.2,100,30.01,0.5,Calm,Calm,-,N/A,Fog,Fog,0,2013-03-03 02:00:00
8:00 AM,50.0,50.0,100,30.04,0.6,Calm,Calm,-,N/A,,Mist,0,2013-03-03 02:30:00
8:30 AM,55,55,98,30.04,1,Calm,Calm,,,,Mist,,2013-03-03 03:00:00
8:30 AM,55.4,55.4,100,30.04,0.9,Calm,Calm,-,N/A,,Mist,0,2013-03-03 03:00:00
9:00 AM,57.2,57.2,100,30.04,1.2,Calm,Calm,-,N/A,,Mist,0,2013-03-03 03:30:00
9:30 AM,60.8,60.8,100,30.06,1.2,Calm,Calm,-,N/A,,Mist,0,2013-03-03 04:00:00
10:00 AM,62.6,59.0,88,30.06,1.2,Calm,Calm,-,N/A,,Mist,0,2013-03-03 04:30:00
10:30 AM,68.0,62.6,83,30.06,1.9,Calm,Calm,-,N/A,,Mist,0,2013-03-03 05:00:00
11:00 AM,69.8,62.6,78,30.06,2.5,WNW,4.6,-,N/A,,Mist,300,2013-03-03 05:30:00
11:30 AM,72,64,68,30.05,2,WNW,6.9,,,,Mist,290,2013-03-03 06:00:00
11:30 AM,71.6,64.4,78,30.06,2.5,WNW,6.9,-,N/A,,Mist,300,2013-03-03 06:00:00
12:00 PM,73.4,64.4,73,30.06,3.1,NW,9.2,-,N/A,,Haze,310,2013-03-03 06:30:00
12:30 PM,73.4,62.6,69,30.06,3.7,Variable,8.1,-,N/A,,Partly Cloudy,0,2013-03-03 07:00:00
1:00 PM,73.4,60.8,65,30.04,3.7,WNW,9.2,-,N/A,,Partly Cloudy,300,2013-03-03 07:30:00
1:30 PM,75.2,59.0,57,30.04,3.7,NW,8.1,-,N/A,,Scattered Clouds,320,2013-03-03 08:00:00
2:00 PM,75.2,59.0,57,30.01,3.7,NW,8.1,-,N/A,,Scattered Clouds,310,2013-03-03 08:30:00
2:30 PM,77.0,59.0,54,30.01,3.1,WNW,6.9,-,N/A,,Haze,290,2013-03-03 09:00:00
3:00 PM,77.0,59.0,54,29.98,3.7,West,5.8,-,N/A,,Scattered Clouds,280,2013-03-03 09:30:00
3:30 PM,77.0,59.0,54,29.98,3.7,West,5.8,-,N/A,,Scattered Clouds,280,2013-03-03 10:00:00
4:00 PM,77.0,59.0,54,29.98,3.7,West,4.6,-,N/A,,Scattered Clouds,270,2013-03-03 10:30:00
5:00 PM,77.0,59.0,54,29.95,3.1,West,5.8,-,N/A,,Haze,260,2013-03-03 11:30:00
5:30 PM,76,60,47,29.94,2,,3.5,,,,Haze,,2013-03-03 12:00:00
5:30 PM,77.0,59.0,54,29.95,3.1,Variable,3.5,-,N/A,,Haze,0,2013-03-03 12:00:00
6:00 PM,73.4,59.0,61,29.98,3.1,WNW,5.8,-,N/A,,Haze,290,2013-03-03 12:30:00
6:30 PM,71.6,59.0,64,29.98,3.1,NW,3.5,-,N/A,,Haze,310,2013-03-03 13:00:00
7:00 PM,68.0,59.0,73,29.98,3.1,NNW,4.6,-,N/A,,Haze,330,2013-03-03 13:30:00
7:30 PM,66.2,59.0,78,29.98,3.1,Calm,Calm,-,N/A,,Haze,0,2013-03-03 14:00:00
8:00 PM,64.4,60.8,88,30.01,3.1,Calm,Calm,-,N/A,,Haze,0,2013-03-03 14:30:00
8:30 PM,65,59,76,29.99,2,Calm,Calm,,,,Mist,,2013-03-03 15:00:00
8:30 PM,64.4,59.0,83,30.01,3.1,Calm,Calm,-,N/A,,Partly Cloudy,0,2013-03-03 15:00:00
9:00 PM,60.8,57.2,88,30.01,2.5,Calm,Calm,-,N/A,,Partly Cloudy,0,2013-03-03 15:30:00
9:30 PM,60.8,55.4,82,30.04,2.5,Calm,Calm,-,N/A,,Partly Cloudy,0,2013-03-03 16:00:00
10:00 PM,60.8,55.4,82,30.01,1.9,Calm,Calm,-,N/A,,Partly Cloudy,0,2013-03-03 16:30:00
10:30 PM,60.8,55.4,82,30.01,1.9,Calm,Calm,-,N/A,,Partly Cloudy,0,2013-03-03 17:00:00
11:00 PM,59.0,55.4,88,30.01,1.9,Calm,Calm,-,N/A,,Mist,0,2013-03-03 17:30:00
11:30 PM,58,54,82,30.01,1,Calm,Calm,,,,Mist,,2013-03-03 18:00:00
11:30 PM,57.2,53.6,88,30.01,1.9,Calm,Calm,-,N/A,,Mist,0,2013-03-03 18:00:00